Torna al catalogo

FENGYUN 1C DEB

AttivoPO
NORAD 37418·DEBRIS·🇨🇳 China

Lanciato May 10, 1999 da Taiyuan Satellite Launch Center

Loading…

Prossimi Passaggi (prossime 24 ore)

TLE

In scadenzaSource: Space-Track

Epoca: Sep 3, 2026, 06:53 UTC

1 37418U 99025EGL 26246.28688742  .00000675  00000-0  16789-2 0  9994
2 37418  98.6020  55.1348 1073546 156.5750 208.8226 11.95446484526457

Traccia FENGYUN 1C DEB in tempo reale con AllMySat

Download on the App Store